Temp
-13 -13 -12 -12 -13 -13 -13 -12 -13 -13 -13 -13 -14 -14 -14 -15 -16 -16 -16 -17 -17 -18 -18 -19 -19 -20 -20 -20 -21 -21 -22 -22 -22 -22 -22 -22 -22 -22 -23 -23 -23 -23 -23 -22 -21 -22 -22 -21 -21 -20 -20 -20 -20 -20
-13 -13 -13 -13 -13 -13 -13 -12 -13 -14 -14 -13 -14 -15 -15 -15 -16 -16 -16 -17 -17 -18 -18 -18 -19 -20 -20 -21 -20 -21 -22 -22 -22 -22 -22 -22 -22 -23 -22 -23 -23 -23 -23 -23 -23 -22 -22 -22 -22 -21 -21 -21 -20 -20
-13 -13 -13 -13 -13 -13 -13 -13 -13 -14 -14 -13 -13 -15 -15 -15 -16 -16 -16 -17 -17 -18 -19 -19 -19 -20 -20 -21 -21 -21 -21 -22 -22 -22 -22 -22 -22 -23 -23 -23 -23 -23 -23 -23 -23 -23 -23 -22 -22 -22 -22 -22 -22 -21
-13 -13 -13 -13 -13 -13 -14 -13 -14 -14 -14 -13 -13 -14 -16 -16 -16 -16 -17 -17 -17 -18 -19 -20 -20 -20 -20 -21 -21 -21 -21 -22 -22 -22 -23 -22 -22 -23 -23 -23 -23 -23 -23 -23 -23 -23 -23 -23 -23 -23 -23 -22 -22 -22
-13 -13 -13 -13 -13 -13 -13 -14 -14 -15 -15 -14 -14 -14 -15 -16 -16 -16 -17 -18 -18 -18 -18 -19 -20 -20 -20 -21 -21 -22 -22 -22 -22 -23 -23 -23 -23 -23 -23 -23 -23 -23 -23 -23 -23 -23 -23 -24 -23 -23 -23 -23 -23 -23
-13 -13 -13 -13 -13 -13 -14 -14 -15 -15 -16 -15 -14 -15 -15 -16 -17 -16 -18 -19 -19 -19 -19 -20 -20 -20 -21 -21 -22 -22 -22 -22 -22 -23 -23 -23 -23 -23 -23 -23 -23 -23 -23 -24 -24 -23 -23 -23 -23 -24 -24 -24 -24 -23
-13 -14 -14 -13 -13 -13 -14 -14 -15 -16 -16 -15 -15 -16 -16 -17 -18 -17 -17 -18 -19 -19 -19 -20 -20 -21 -21 -22 -22 -22 -22 -22 -23 -23 -23 -23 -23 -23 -23 -23 -23 -23 -23 -24 -24 -24 -24 -24 -24 -24 -24 -24 -24 -24
-13 -14 -13 -13 -13 -13 -14 -14 -16 -16 -17 -16 -16 -16 -16 -17 -18 -18 -18 -19 -20 -20 -20 -20 -20 -21 -22 -22 -22 -22 -23 -23 -23 -23 -23 -23 -23 -24 -24 -24 -24 -23 -24 -24 -24 -24 -24 -24 -24 -24 -24 -24 -24 -24
-13 -14 -13 -13 -13 -13 -14 -15 -17 -17 -17 -17 -17 -16 -16 -17 -19 -19 -19 -20 -20 -21 -21 -21 -21 -22 -22 -22 -23 -23 -23 -23 -23 -24 -24 -24 -24 -24 -24 -24 -24 -24 -24 -24 -24 -24 -25 -25 -25 -25 -25 -25 -25 -25
-13 -13 -14 -13 -13 -14 -15 -16 -17 -18 -18 -17 -17 -16 -16 -18 -19 -19 -20 -20 -21 -22 -22 -22 -23 -23 -23 -23 -24 -24 -23 -23 -23 -24 -24 -24 -24 -25 -25 -25 -24 -25 -25 -25 -25 -25 -25 -25 -26 -25 -25 -25 -25 -25
-13 -13 -14 -14 -14 -15 -16 -17 -18 -19 -19 -18 -17 -17 -18 -19 -20 -20 -21 -21 -21 -22 -23 -23 -24 -24 -25 -25 -25 -25 -24 -24 -24 -24 -24 -24 -24 -26 -25 -25 -25 -25 -26 -26 -26 -26 -26 -26 -26 -26 -26 -26 -26 -26
-13 -14 -14 -14 -15 -15 -17 -18 -19 -20 -19 -18 -17 -18 -18 -20 -20 -21 -22 -22 -23 -23 -24 -25 -25 -26 -26 -26 -26 -26 -26 -25 -25 -25 -25 -25 -26 -26 -26 -26 -26 -26 -26 -26 -27 -27 -27 -27 -27 -27 -27 -27 -27 -27
-14 -14 -14 -15 -15 -16 -19 -19 -20 -20 -19 -17 -18 -18 -20 -21 -21 -22 -23 -23 -24 -25 -25 -25 -26 -26 -26 -26 -27 -27 -26 -26 -26 -26 -26 -26 -26 -26 -26 -27 -27 -27 -27 -27 -28 -28 -28 -28 -27 -28 -28 -28 -28 -27
-14 -14 -15 -15 -16 -18 -19 -19 -20 -20 -20 -19 -18 -18 -20 -22 -22 -23 -24 -24 -25 -25 -26 -26 -26 -27 -27 -27 -27 -27 -27 -26 -26 -27 -27 -27 -27 -27 -27 -27 -27 -27 -28 -28 -28 -29 -28 -28 -28 -28 -28 -28 -28 -28
-14 -15 -15 -15 -17 -19 -20 -20 -19 -20 -20 -19 -19 -19 -20 -23 -24 -24 -25 -25 -25 -26 -27 -27 -27 -27 -27 -27 -27 -27 -27 -27 -28 -28 -28 -28 -28 -28 -28 -28 -28 -28 -29 -29 -29 -29 -29 -29 -29 -29 -29 -29 -29 -29
-15 -15 -15 -17 -19 -20 -20 -20 -20 -20 -19 -20 -19 -20 -22 -23 -24 -25 -25 -26 -27 -27 -27 -27 -27 -27 -27 -27 -28 -28 -28 -28 -29 -29 -29 -29 -29 -29 -29 -29 -29 -29 -30 -30 -30 -30 -30 -30 -29 -29 -29 -29 -30 -30
-16 -16 -18 -19 -20 -20 -21 -21 -21 -21 -20 -19 -20 -22 -24 -24 -24 -25 -26 -27 -27 -27 -27 -27 -28 -28 -28 -28 -29 -29 -29 -29 -29 -30 -30 -30 -30 -30 -30 -30 -30 -30 -30 -30 -30 -30 -30 -30 -30 -30 -30 -30 -30 -30
-17 -18 -19 -19 -20 -21 -22 -22 -22 -21 -20 -20 -22 -23 -24 -24 -25 -26 -26 -27 -27 -27 -27 -28 -28 -28 -29 -30 -30 -30 -30 -30 -31 -30 -31 -31 -31 -31 -31 -31 -30 -30 -31 -31 -31 -31 -31 -31 -31 -30 -30 -30 -30 -31
-18 -18 -19 -21 -22 -23 -23 -22 -22 -21 -21 -22 -23 -24 -25 -25 -26 -26 -27 -27 -27 -28 -28 -28 -28 -28 -29 -30 -30 -31 -31 -31 -31 -31 -31 -31 -32 -32 -31 -31 -31 -31 -31 -31 -31 -31 -31 -31 -31 -31 -31 -31 -31 -31
-19 -20 -22 -23 -24 -24 -24 -23 -23 -23 -22 -23 -24 -25 -25 -26 -26 -27 -27 -27 -28 -28 -28 -28 -28 -29 -30 -30 -31 -31 -32 -32 -32 -32 -32 -32 -32 -32 -32 -32 -32 -32 -32 -32 -32 -32 -32 -31 -32 -32 -32 -31 -31 -31
-21 -22 -24 -24 -24 -24 -24 -23 -23 -23 -24 -25 -25 -26 -26 -26 -27 -27 -27 -28 -27 -27 -28 -28 -28 -29 -29 -30 -30 -31 -31 -31 -32 -32 -32 -32 -33 -33 -32 -32 -32 -32 -32 -32 -32 -32 -32 -32 -32 -32 -32 -32 -32 -32
-23 -23 -24 -24 -25 -25 -25 -24 -24 -25 -25 -26 -26 -27 -27 -27 -27 -28 -28 -28 -28 -28 -29 -29 -29 -29 -30 -30 -30 -31 -31 -32 -32 -32 -32 -33 -33 -33 -33 -33 -33 -32 -32 -32 -33 -33 -33 -33 -33 -33 -33 -33 -33 -33
-24 -24 -24 -25 -25 -26 -25 -25 -26 -26 -27 -27 -27 -27 -27 -28 -28 -28 -28 -28 -29 -29 -29 -30 -30 -30 -30 -30 -31 -32 -33 -33 -33 -33 -33 -34 -33 -33 -33 -33 -33 -33 -33 -33 -33 -33 -33 -33 -33 -33 -33 -34 -34 -34
-25 -25 -25 -25 -25 -25 -25 -26 -27 -27 -27 -28 -28 -28 -28 -28 -29 -29 -29 -29 -30 -30 -31 -31 -31 -31 -31 -31 -31 -32 -33 -33 -33 -34 -34 -34 -34 -34 -34 -34 -34 -33 -33 -33 -33 -33 -34 -34 -34 -34 -34 -35 -35 -35
-25 -25 -25 -25 -25 -26 -26 -26 -26 -27 -27 -28 -28 -29 -29 -29 -29 -29 -30 -30 -31 -31 -31 -31 -31 -31 -32 -32 -32 -33 -33 -34 -34 -34 -34 -34 -34 -34 -34 -34 -34 -34 -34 -34 -34 -34 -34 -35 -35 -35 -35 -36 -36 -36
-26 -26 -26 -26 -26 -26 -27 -27 -28 -28 -29 -29 -29 -30 -30 -30 -30 -31 -31 -31 -31 -31 -31 -32 -32 -32 -32 -33 -33 -33 -33 -34 -34 -34 -34 -34 -34 -34 -34 -34 -34 -34 -34 -35 -35 -35 -36 -36 -36 -36 -36 -36 -37 -37
-27 -27 -27 -27 -27 -27 -28 -28 -29 -29 -29 -30 -30 -31 -31 -31 -31 -31 -32 -32 -32 -32 -32 -32 -32 -33 -33 -33 -34 -34 -34 -34 -34 -34 -34 -34 -34 -34 -35 -35 -35 -35 -35 -36 -36 -36 -36 -37 -37 -37 -37 -37 -38 -38
-27 -28 -28 -28 -28 -29 -29 -29 -30 -30 -31 -31 -31 -32 -32 -31 -32 -32 -32 -32 -32 -33 -33 -33 -34 -34 -34 -35 -35 -35 -35 -35 -35 -35 -35 -35 -36 -36 -36 -36 -36 -36 -37 -37 -37 -37 -37 -37 -37 -38 -38 -38 -38 -38
-29 -29 -29 -30 -30 -30 -31 -31 -31 -32 -32 -32 -31 -31 -32 -32 -32 -33 -33 -33 -33 -34 -34 -35 -35 -35 -35 -35 -36 -36 -36 -36 -37 -37 -37 -37 -37 -37 -37 -37 -37 -37 -38 -38 -38 -38 -38 -38 -38 -38 -38 -38 -39 -39
-30 -31 -31 -31 -32 -32 -32 -32 -32 -32 -32 -32 -32 -32 -33 -33 -33 -33 -34 -34 -34 -35 -35 -36 -36 -36 -37 -37 -37 -37 -37 -37 -37 -37 -38 -38 -38 -38 -38 -38 -38 -38 -38 -38 -39 -39 -39 -39 -39 -39 -39 -39 -39 -39
-32 -32 -32 -32 -32 -32 -32 -32 -32 -32 -32 -33 -33 -33 -33 -33 -34 -34 -34 -35 -35 -35 -36 -36 -37 -37 -38 -38 -38 -39 -39 -39 -39 -39 -39 -39 -39 -39 -39 -39 -39 -39 -39 -39 -39 -39 -39 -39 -39 -39 -40 -40 -40 -40
-32 -32 -32 -32 -32 -33 -33 -33 -33 -33 -33 -33 -33 -33 -33 -34 -34 -34 -35 -35 -35 -36 -36 -37 -37 -38 -38 -38 -39 -39 -39 -40 -40 -40 -40 -40 -40 -40 -40 -40 -40 -40 -40 -40 -40 -40 -40 -40 -40 -40 -40 -40 -40 -40
-33 -33 -33 -33 -33 -33 -33 -33 -33 -33 -33 -33 -34 -34 -34 -34 -34 -35 -35 -35 -36 -36 -37 -37 -37 -38 -38 -38 -39 -39 -39 -40 -40 -41 -41 -41 -41 -41 -41 -41 -41 -41 -41 -41 -40 -41 -41 -41 -41 -41 -41 -41 -41 -41
Height
5730 5726 5722 5718 5713 5708 5703 5700 5695 5686 5676 5667 5662 5660 5654 5646 5641 5635 5630 5623 5616 5607 5603 5599 5595 5591 5587 5584 5581 5577 5574 5570 5566 5563 5560 5557 5554 5552 5550 5548 5549 5550 5551 5554 5555 5559 5564 5566 5569 5573 5576 5576 5579 5583
5721 5717 5713 5709 5704 5699 5695 5692 5687 5678 5670 5660 5653 5651 5646 5640 5635 5631 5624 5617 5611 5605 5600 5595 5591 5587 5584 5582 5579 5575 5572 5569 5566 5563 5560 5556 5554 5551 5550 5547 5545 5545 5546 5548 5550 5552 5554 5555 5558 5562 5565 5565 5567 5569
5711 5707 5704 5700 5695 5691 5686 5683 5679 5670 5661 5651 5646 5641 5639 5632 5627 5623 5618 5612 5606 5601 5594 5589 5586 5583 5579 5577 5575 5572 5569 5565 5562 5560 5558 5556 5552 5550 5548 5546 5544 5541 5539 5539 5541 5543 5544 5546 5547 5548 5550 5552 5554 5555
5700 5696 5693 5690 5686 5682 5678 5673 5669 5662 5653 5643 5638 5633 5633 5626 5619 5615 5611 5605 5600 5595 5590 5584 5580 5577 5574 5572 5569 5567 5565 5561 5559 5556 5554 5552 5550 5547 5545 5543 5541 5540 5537 5535 5534 5533 5534 5534 5535 5536 5537 5539 5540 5541
5688 5685 5682 5678 5675 5672 5668 5664 5659 5653 5644 5636 5630 5624 5621 5620 5612 5607 5602 5597 5592 5588 5583 5579 5574 5572 5569 5566 5563 5561 5559 5556 5554 5551 5549 5548 5545 5543 5541 5538 5536 5535 5534 5532 5531 5529 5528 5527 5525 5524 5524 5526 5526 5526
5675 5672 5669 5667 5663 5660 5657 5654 5649 5642 5635 5627 5622 5617 5612 5610 5603 5599 5593 5587 5583 5578 5575 5572 5567 5565 5562 5560 5557 5556 5553 5550 5548 5545 5543 5542 5540 5538 5535 5533 5531 5528 5527 5525 5524 5523 5522 5521 5519 5518 5516 5515 5514 5513
5661 5659 5656 5653 5649 5647 5644 5642 5638 5630 5624 5617 5611 5608 5603 5600 5594 5590 5585 5579 5573 5570 5567 5565 5561 5558 5556 5553 5550 5548 5546 5544 5540 5539 5536 5534 5532 5531 5529 5526 5524 5521 5519 5517 5515 5513 5512 5511 5509 5508 5507 5506 5504 5503
5646 5645 5642 5639 5636 5633 5631 5629 5626 5619 5613 5605 5600 5598 5593 5587 5583 5579 5572 5568 5565 5562 5558 5555 5553 5551 5547 5545 5542 5539 5537 5536 5534 5531 5529 5527 5524 5521 5521 5519 5516 5514 5511 5508 5505 5503 5501 5499 5498 5496 5495 5493 5491 5490
5630 5630 5627 5624 5621 5618 5616 5615 5612 5607 5600 5593 5589 5586 5582 5576 5572 5568 5561 5557 5555 5553 5549 5547 5545 5543 5539 5536 5533 5532 5529 5528 5527 5523 5522 5522 5518 5511 5511 5509 5506 5504 5501 5498 5495 5492 5489 5486 5484 5483 5481 5480 5477 5476
5615 5614 5611 5608 5606 5603 5601 5601 5596 5592 5587 5581 5578 5576 5570 5567 5561 5557 5550 5547 5545 5542 5539 5537 5534 5532 5531 5527 5524 5523 5521 5519 5518 5518 5514 5514 5513 5504 5501 5498 5496 5493 5490 5487 5484 5481 5478 5474 5471 5468 5466 5464 5462 5460
5598 5597 5595 5592 5590 5588 5586 5585 5580 5576 5571 5568 5565 5561 5557 5553 5550 5544 5540 5538 5534 5532 5529 5526 5524 5521 5519 5517 5514 5512 5510 5506 5507 5507 5503 5503 5503 5495 5491 5489 5485 5481 5477 5474 5471 5467 5463 5460 5457 5453 5451 5449 5446 5444
5580 5579 5578 5576 5574 5572 5569 5568 5564 5561 5556 5554 5551 5547 5543 5541 5538 5535 5530 5527 5524 5522 5520 5516 5514 5512 5509 5507 5503 5500 5499 5495 5494 5493 5491 5491 5489 5482 5480 5476 5473 5469 5464 5460 5456 5452 5448 5445 5442 5439 5436 5433 5431 5428
5561 5561 5561 5560 5555 5553 5551 5549 5547 5545 5542 5539 5536 5533 5532 5530 5526 5523 5520 5516 5514 5512 5509 5507 5505 5502 5499 5496 5493 5489 5486 5483 5480 5479 5479 5478 5470 5468 5465 5462 5458 5454 5449 5445 5441 5436 5432 5430 5427 5424 5420 5418 5415 5411
5543 5542 5542 5540 5537 5534 5532 5531 5531 5530 5527 5525 5523 5521 5520 5518 5514 5511 5509 5507 5505 5502 5499 5496 5493 5490 5486 5483 5479 5474 5471 5470 5466 5466 5465 5458 5455 5451 5448 5445 5441 5437 5434 5430 5426 5422 5418 5414 5412 5409 5406 5403 5400 5396
5521 5522 5522 5520 5517 5515 5513 5513 5516 5514 5511 5510 5508 5508 5511 5508 5504 5500 5498 5496 5493 5491 5487 5483 5479 5476 5472 5467 5464 5461 5457 5453 5452 5449 5444 5441 5438 5434 5431 5428 5424 5421 5418 5415 5412 5407 5404 5400 5397 5395 5392 5389 5385 5382
5500 5500 5504 5502 5499 5496 5494 5496 5497 5499 5497 5496 5494 5498 5499 5497 5493 5489 5486 5484 5481 5478 5473 5469 5463 5458 5455 5452 5449 5443 5440 5440 5435 5430 5427 5424 5422 5419 5416 5413 5409 5406 5403 5400 5396 5393 5390 5386 5383 5380 5377 5374 5370 5366
5479 5486 5487 5483 5481 5480 5479 5479 5480 5482 5481 5482 5486 5487 5485 5483 5482 5478 5475 5474 5469 5466 5461 5455 5450 5445 5440 5434 5432 5429 5426 5422 5417 5414 5411 5409 5407 5404 5401 5398 5395 5392 5389 5385 5381 5378 5375 5372 5368 5365 5362 5359 5355 5351
5465 5468 5465 5465 5463 5464 5463 5464 5464 5466 5469 5472 5474 5474 5470 5469 5468 5466 5463 5459 5456 5451 5446 5442 5435 5431 5426 5421 5417 5412 5409 5406 5402 5400 5397 5394 5391 5389 5386 5383 5380 5377 5374 5369 5366 5364 5361 5357 5353 5350 5347 5343 5340 5335
5448 5450 5449 5449 5449 5450 5449 5450 5450 5453 5456 5458 5460 5459 5456 5455 5454 5451 5448 5444 5440 5435 5429 5424 5417 5413 5409 5404 5400 5395 5393 5390 5388 5385 5380 5377 5374 5371 5368 5366 5363 5360 5357 5355 5352 5349 5346 5342 5339 5335 5331 5328 5324 5320
5433 5435 5435 5435 5435 5436 5435 5438 5440 5440 5443 5446 5445 5444 5442 5441 5438 5435 5431 5427 5423 5417 5411 5405 5402 5396 5392 5387 5383 5379 5376 5373 5371 5367 5363 5360 5357 5354 5352 5349 5347 5344 5342 5339 5337 5334 5331 5327 5324 5320 5316 5312 5308 5304
5418 5420 5421 5423 5425 5427 5426 5427 5427 5430 5432 5433 5433 5430 5428 5425 5422 5418 5415 5410 5405 5400 5395 5390 5385 5380 5375 5370 5366 5363 5359 5355 5352 5349 5347 5345 5341 5339 5337 5335 5332 5330 5327 5325 5322 5319 5316 5312 5309 5305 5301 5296 5292 5288
5409 5410 5413 5413 5414 5415 5415 5415 5416 5417 5417 5417 5416 5412 5409 5407 5404 5401 5396 5392 5388 5384 5379 5375 5370 5366 5360 5355 5350 5346 5343 5339 5336 5334 5332 5330 5327 5325 5323 5320 5318 5315 5312 5310 5306 5304 5301 5297 5293 5289 5284 5280 5275 5271
5400 5403 5404 5405 5405 5404 5405 5406 5406 5405 5403 5401 5399 5396 5394 5392 5389 5385 5381 5378 5374 5369 5365 5359 5355 5351 5346 5340 5335 5330 5326 5323 5321 5318 5317 5315 5313 5311 5308 5306 5303 5300 5297 5295 5292 5289 5285 5281 5277 5272 5268 5263 5259 5254
5392 5394 5394 5395 5394 5394 5395 5395 5393 5391 5389 5387 5384 5381 5380 5377 5374 5370 5367 5364 5359 5354 5349 5345 5341 5336 5332 5327 5321 5316 5312 5309 5307 5304 5302 5300 5297 5295 5293 5290 5288 5285 5282 5279 5276 5272 5268 5264 5260 5256 5252 5247 5243 5239
5383 5382 5384 5383 5383 5384 5382 5381 5378 5377 5375 5373 5370 5368 5365 5361 5358 5355 5352 5347 5343 5339 5335 5331 5327 5322 5318 5312 5308 5304 5300 5297 5294 5291 5288 5286 5283 5280 5278 5275 5273 5270 5266 5263 5259 5256 5252 5248 5244 5240 5236 5232 5228 5225
5372 5372 5374 5373 5373 5373 5371 5369 5367 5365 5362 5360 5358 5354 5349 5346 5343 5339 5338 5332 5328 5324 5320 5316 5311 5306 5302 5298 5294 5290 5287 5283 5279 5276 5273 5270 5267 5264 5261 5258 5255 5252 5249 5246 5243 5240 5236 5233 5228 5225 5222 5219 5216 5213
5364 5364 5364 5363 5362 5361 5359 5357 5355 5353 5349 5346 5343 5339 5335 5330 5328 5327 5322 5317 5312 5306 5302 5297 5292 5287 5283 5279 5275 5271 5268 5264 5262 5258 5255 5252 5249 5247 5244 5242 5239 5236 5233 5231 5228 5225 5221 5218 5215 5213 5210 5208 5205 5201
5354 5353 5353 5352 5351 5350 5348 5345 5341 5338 5335 5331 5328 5326 5322 5318 5315 5309 5304 5298 5292 5286 5281 5276 5271 5266 5262 5258 5254 5251 5248 5245 5242 5240 5237 5234 5232 5230 5228 5226 5223 5221 5218 5216 5213 5211 5209 5207 5205 5203 5200 5197 5194 5191
5344 5344 5343 5341 5340 5338 5336 5333 5330 5326 5322 5320 5316 5312 5308 5302 5297 5290 5284 5278 5273 5268 5262 5257 5253 5248 5244 5240 5236 5233 5230 5227 5225 5222 5220 5218 5216 5214 5212 5210 5208 5206 5204 5203 5201 5200 5199 5197 5196 5193 5191 5188 5185 5182
5335 5334 5332 5331 5330 5327 5326 5323 5318 5314 5311 5306 5302 5297 5292 5286 5281 5275 5269 5263 5257 5251 5246 5241 5236 5231 5227 5224 5220 5217 5214 5212 5210 5207 5205 5203 5201 5200 5198 5197 5195 5194 5193 5192 5191 5190 5189 5188 5187 5185 5182 5180 5177 5174
5327 5326 5324 5323 5320 5318 5315 5311 5307 5303 5299 5295 5290 5285 5280 5274 5268 5262 5256 5250 5243 5237 5232 5226 5221 5216 5212 5208 5205 5202 5199 5198 5195 5194 5192 5190 5189 5188 5187 5186 5185 5184 5183 5182 5182 5181 5180 5179 5178 5176 5174 5172 5170 5167
5320 5319 5317 5314 5312 5309 5306 5302 5298 5295 5290 5286 5281 5276 5271 5266 5260 5254 5247 5241 5234 5228 5222 5216 5210 5205 5200 5195 5192 5188 5185 5183 5181 5180 5179 5178 5177 5176 5175 5175 5174 5173 5173 5173 5172 5171 5171 5169 5168 5167 5165 5164 5162 5160
5314 5313 5311 5309 5306 5303 5300 5297 5294 5290 5286 5281 5276 5271 5266 5260 5254 5248 5242 5235 5228 5221 5215 5208 5202 5196 5191 5186 5181 5178 5174 5171 5169 5167 5166 5166 5165 5164 5164 5164 5163 5163 5163 5162 5162 5161 5161 5160 5158 5157 5156 5155 5154 5153
Wind_Speed
46 47 47 48 48 51 56 57 56 57 61 64 64 61 62 58 54 51 46 42 41 38 36 33 28 23 21 22 23 22 19 17 18 20 18 19 19 19 18 9 27 28 32 37 47 43 45 35 35 43 51 51 49 50
49 48 47 47 51 56 60 57 57 58 59 64 66 60 58 56 56 51 47 43 39 37 33 32 27 25 20 19 22 21 20 15 13 15 16 16 16 17 16 17 13 17 32 35 37 37 38 43 45 44 45 36 47 49
55 50 50 52 54 57 60 59 58 56 61 65 68 61 52 54 54 48 45 43 39 36 32 29 29 26 23 19 20 21 20 17 13 11 11 13 15 15 15 16 16 15 13 22 35 37 41 42 42 46 51 54 56 51
55 57 52 52 56 56 59 58 58 57 60 63 64 62 53 54 52 48 44 41 39 35 28 27 28 27 24 21 20 19 20 20 18 14 10 10 14 16 14 15 16 17 16 15 13 19 34 38 41 46 48 50 54 57
55 55 56 56 57 59 60 61 61 54 58 60 63 62 58 54 51 48 44 40 37 34 27 26 26 25 26 22 22 21 21 20 21 19 16 14 12 14 18 16 17 17 20 20 20 19 17 17 22 31 41 48 52 55
58 57 59 59 61 62 61 61 59 55 55 61 61 61 59 50 50 50 43 39 37 32 28 27 27 25 25 25 23 23 22 23 22 24 22 20 18 17 16 20 20 20 20 22 25 27 27 26 27 27 27 27 27 30
60 58 60 65 66 64 62 60 57 57 54 59 58 57 57 53 50 49 46 39 34 30 28 27 26 26 26 26 26 24 23 24 23 22 25 25 25 23 20 21 22 23 23 24 25 27 29 33 34 35 36 37 37 37
59 60 64 66 67 68 66 61 58 57 54 58 58 53 51 53 49 47 42 38 32 28 27 28 27 25 29 28 27 27 26 24 22 22 23 25 26 27 24 26 26 29 29 29 30 29 31 32 34 36 38 39 42 43
61 62 69 71 71 71 68 64 57 52 54 58 58 52 52 51 48 45 41 34 28 28 27 28 27 25 27 28 28 28 27 26 23 23 22 20 24 30 29 28 29 32 35 37 36 36 36 36 38 40 40 40 42 43
69 69 71 73 74 74 70 64 56 50 52 59 56 53 55 52 46 43 34 31 29 27 27 27 27 26 26 28 28 28 27 30 27 25 25 24 21 30 32 32 31 33 35 38 40 41 40 40 41 43 44 46 46 46
73 73 73 75 74 73 72 60 53 50 53 55 54 54 53 50 44 40 31 29 30 27 27 26 26 26 28 29 30 31 32 35 33 31 32 32 29 33 35 36 37 38 38 39 41 41 42 45 45 46 46 46 48 48
79 78 77 75 74 74 67 54 47 45 51 55 52 54 54 47 41 35 30 29 28 27 26 26 26 29 31 32 35 37 38 41 40 39 39 38 39 44 42 42 42 44 44 43 44 43 43 44 46 48 49 48 48 48
82 83 81 76 79 70 56 53 45 40 50 54 52 56 51 44 38 30 28 28 29 29 28 28 30 32 34 36 39 43 46 49 47 47 45 45 49 49 50 50 50 51 47 44 43 43 44 46 47 49 49 47 47 46
85 86 82 82 78 63 51 51 46 44 50 54 54 54 46 39 31 26 29 30 31 31 33 34 35 38 39 41 43 47 49 50 52 51 52 54 54 54 53 50 49 49 46 42 43 43 45 46 46 46 46 45 45 45
83 84 83 85 69 55 49 51 50 48 51 53 53 50 40 32 27 29 31 33 34 36 38 41 44 46 46 47 50 52 54 56 57 56 56 56 54 54 51 49 48 47 46 45 43 43 44 42 42 43 44 43 42 41
86 87 85 69 50 51 51 50 50 49 52 51 49 41 32 31 30 30 33 35 37 43 46 47 48 48 49 51 54 53 55 54 54 56 56 54 51 48 47 47 47 46 47 46 44 44 43 39 40 43 44 43 42 42
83 79 60 51 52 54 52 49 50 49 50 48 39 32 30 32 32 33 35 39 44 45 45 47 51 54 57 58 58 58 58 57 57 57 55 52 47 45 44 43 44 43 45 46 46 45 43 41 41 42 45 44 45 45
72 56 51 54 52 47 46 47 48 49 46 39 34 32 34 34 35 37 40 42 45 49 52 54 60 64 62 59 58 59 58 56 55 54 48 47 47 45 44 43 45 44 44 47 46 45 43 42 43 44 45 47 48 46
56 53 49 44 43 42 43 45 47 44 38 36 36 35 36 38 39 42 45 49 51 55 61 64 65 62 59 58 56 54 54 55 55 55 58 58 49 47 46 46 44 43 45 45 44 44 45 44 45 46 45 45 45 45
42 41 39 37 38 39 41 41 39 40 40 37 37 38 40 42 46 48 51 55 59 61 59 56 53 54 54 53 53 53 56 57 59 55 46 45 47 45 39 39 41 42 42 43 44 46 46 45 44 43 44 45 46 48
37 34 33 34 35 35 35 37 40 42 42 40 40 43 46 48 50 52 55 57 54 51 50 49 49 48 48 48 49 51 50 49 47 45 46 44 40 39 39 40 41 42 44 45 47 46 44 44 44 46 48 50 50 48
28 28 29 29 30 32 37 42 45 44 45 45 48 51 51 51 53 54 51 49 49 48 47 48 49 51 53 55 55 56 53 50 47 43 41 39 37 39 41 41 42 44 45 44 43 42 43 46 48 50 49 48 48 51
27 27 28 29 33 38 43 44 43 45 48 49 50 51 52 51 47 48 47 46 47 48 47 47 47 47 46 48 49 50 49 47 45 44 42 41 42 43 44 44 45 44 42 43 44 47 49 50 50 49 48 50 52 51
26 29 32 36 41 45 47 47 46 46 47 48 48 46 44 44 44 45 47 47 45 42 43 43 42 43 43 42 41 40 41 41 40 40 41 42 43 44 43 43 43 43 45 46 49 51 50 48 47 48 51 51 48 43
36 38 40 37 34 33 34 35 38 40 40 42 42 42 42 45 48 48 47 45 43 43 43 45 47 47 46 44 42 40 38 37 36 36 37 37 39 40 42 44 46 48 49 49 48 48 47 47 49 50 47 43 39 38
27 28 29 29 31 32 34 35 37 38 38 40 43 45 46 47 47 48 44 44 45 47 50 50 51 51 50 49 48 47 46 45 45 45 47 48 48 48 48 47 46 46 46 46 46 46 47 48 45 41 38 36 35 34
25 27 29 32 33 34 35 36 38 41 42 43 44 44 44 44 43 42 45 48 52 55 57 58 58 57 55 54 54 53 53 53 53 52 51 49 48 47 46 46 45 44 44 45 46 46 42 38 35 33 33 31 30 30
28 28 28 30 33 36 37 39 40 40 40 37 36 38 42 46 48 51 53 55 57 58 59 58 57 56 55 54 53 52 51 50 49 48 47 46 45 44 43 44 44 44 44 43 37 34 32 30 29 28 28 28 28 27
27 30 32 34 35 34 33 32 31 32 35 39 43 47 49 50 51 51 52 51 51 51 50 50 49 48 47 46 46 45 45 44 44 43 43 43 43 42 42 41 39 36 32 30 29 27 25 24 24 24 24 24 24 24
28 27 25 23 23 25 28 31 34 37 40 41 42 42 43 44 46 47 48 48 48 48 48 47 47 47 46 45 44 43 41 39 38 37 36 36 35 34 33 31 30 29 28 27 25 23 22 23 23 24 24 23 23 23
17 18 21 24 27 30 31 31 31 32 33 34 34 35 36 37 38 38 39 40 40 40 40 40 40 40 40 40 40 40 40 38 37 36 34 33 31 30 29 28 27 27 26 25 24 23 23 23 23 24 25 24 23 22
18 21 23 22 22 22 22 22 22 23 23 24 25 26 27 28 29 31 32 32 33 33 33 34 35 35 35 34 34 34 35 35 36 35 34 32 31 29 28 27 26 25 25 24 25 24 24 25 25 26 26 25 23 22
13 14 13 13 13 14 15 16 18 19 21 22 23 24 25 26 28 29 31 32 32 33 32 32 32 32 32 32 31 31 30 30 30 30 32 32 32 30 29 27 26 26 26 26 26 26 26 27 27 27 26 26 24 22
Wind_Direction
299 308 308 308 312 319 324 325 327 322 320 319 321 326 330 333 342 344 343 340 340 338 339 336 336 337 345 348 347 346 355 359 14 7 360 353 355 1 6 283 236 232 234 237 243 245 246 241 239 248 248 246 244 245
296 299 302 304 309 315 318 322 325 322 322 320 318 322 328 332 340 340 339 337 334 333 335 331 330 328 331 337 341 338 338 350 358 3 360 355 343 336 339 346 348 261 242 237 234 234 243 245 248 250 249 254 250 254
293 295 296 299 304 309 313 317 324 320 323 319 322 323 328 333 338 336 335 333 331 329 327 326 324 323 321 328 330 331 329 326 334 342 345 342 338 333 319 318 322 334 323 262 246 244 242 241 241 242 243 247 254 257
291 295 294 296 300 306 313 316 321 320 322 319 320 323 330 333 333 331 330 329 328 326 322 316 318 317 316 318 319 319 322 317 314 316 320 322 321 322 324 310 300 300 303 311 306 273 255 253 252 251 250 249 251 253
288 292 293 295 296 300 308 312 315 318 318 314 315 318 324 332 326 328 327 326 323 322 319 312 311 310 312 311 314 313 313 309 305 303 303 301 306 306 310 310 306 291 284 284 286 284 282 276 267 263 261 259 259 260
291 289 291 293 294 299 306 312 317 314 317 310 313 318 322 329 322 325 324 322 320 317 316 309 308 309 308 308 308 311 309 304 301 298 296 292 293 294 296 296 295 297 294 288 281 278 276 273 272 272 271 269 267 264
284 286 289 292 293 301 304 310 317 311 311 307 310 317 322 322 319 322 321 320 313 310 308 306 306 309 306 305 307 307 306 305 302 297 294 293 291 289 287 292 285 287 288 285 286 286 281 276 273 272 273 273 272 270
279 282 285 289 293 298 301 307 313 308 309 306 306 315 318 316 316 317 315 313 307 304 304 304 305 305 303 304 303 304 303 302 303 300 292 294 296 292 287 287 285 280 279 280 282 281 280 280 277 273 272 272 272 273
274 278 283 286 289 295 300 305 309 306 304 302 306 313 314 313 313 314 312 306 301 300 302 302 304 303 301 301 300 302 299 296 301 295 292 296 295 293 295 292 290 284 282 283 285 284 286 284 282 280 277 276 275 275
275 277 280 284 288 292 299 303 303 299 297 299 305 313 313 310 310 310 305 302 300 300 304 304 303 300 299 298 297 296 296 291 295 292 288 294 299 294 291 292 295 294 290 285 285 284 286 286 285 282 281 279 278 278
276 277 279 282 287 291 294 300 297 292 291 296 304 306 306 307 309 304 299 298 299 302 305 304 303 299 299 296 291 289 291 290 294 294 291 296 301 294 290 290 292 294 294 289 285 286 284 283 283 285 282 280 280 280
272 275 278 282 286 287 290 292 288 286 287 292 299 302 302 305 305 300 295 296 300 304 303 301 296 291 290 287 282 282 283 285 287 291 292 297 297 295 295 295 294 293 293 289 286 285 284 284 285 285 285 284 283 282
269 272 276 278 280 283 286 282 279 280 285 293 296 299 299 302 302 296 294 295 299 300 298 297 294 293 293 288 283 280 280 282 287 288 292 296 292 294 295 294 293 292 290 288 288 287 286 286 286 287 289 288 286 282
266 269 271 274 276 276 274 274 273 278 282 288 291 294 299 304 297 290 291 294 295 297 298 297 295 294 292 288 285 285 286 288 288 292 295 294 295 296 296 296 293 289 289 289 289 289 286 288 291 293 292 289 287 287
262 265 267 270 271 271 269 268 274 280 281 285 288 292 302 296 284 287 289 293 296 298 297 295 292 291 290 288 288 290 289 290 295 297 295 296 297 298 300 296 296 293 290 291 293 291 289 291 294 296 294 293 292 293
260 261 265 268 260 259 262 269 274 276 278 282 287 296 293 279 283 288 290 295 296 295 294 294 292 293 292 291 292 290 290 294 294 293 294 297 298 299 297 295 294 293 291 293 293 291 290 293 297 298 295 294 294 295
257 261 263 254 255 260 264 269 272 274 276 282 290 286 278 280 287 291 292 292 289 288 287 288 290 292 293 291 290 291 292 291 292 294 296 298 297 295 295 294 293 293 294 293 291 294 294 295 294 293 292 291 293 292
258 259 253 257 256 260 263 267 268 269 274 280 279 280 284 289 290 290 289 288 286 287 288 288 290 294 292 289 287 287 288 290 292 293 292 293 296 296 295 295 294 291 296 290 291 292 292 292 292 290 290 290 290 289
261 262 254 252 255 258 261 263 265 271 274 275 281 286 288 289 288 287 287 289 289 290 291 294 294 294 292 291 290 290 289 290 290 288 290 292 292 291 291 288 285 288 286 288 290 291 290 289 291 292 292 291 291 293
249 248 248 248 251 254 258 262 265 268 273 281 284 286 286 286 288 289 289 291 292 293 293 292 292 291 291 289 287 286 286 287 287 289 288 288 291 291 288 285 284 284 285 288 289 290 291 292 291 290 294 295 295 295
239 237 239 243 249 251 256 263 266 271 277 281 283 283 285 288 288 288 292 292 291 290 289 290 291 292 293 291 289 289 288 287 287 286 287 287 288 287 287 286 286 287 287 288 289 291 292 290 290 292 294 294 295 296
224 228 232 240 249 257 262 267 273 280 283 284 286 288 288 288 290 292 288 287 288 289 289 292 293 293 293 292 291 289 288 288 290 289 287 286 287 288 287 287 288 289 290 289 288 289 290 293 294 294 294 294 296 298
222 232 242 251 257 263 267 272 276 280 283 284 283 283 286 287 285 285 284 286 288 291 292 292 293 296 298 298 297 293 290 290 289 287 285 285 285 285 286 287 288 288 288 288 289 292 294 295 294 293 294 297 298 298
245 250 256 260 264 269 275 277 276 276 276 279 281 281 282 283 283 283 287 290 291 288 288 292 296 299 300 300 301 299 295 292 289 288 285 284 284 285 286 287 287 288 289 291 291 292 293 293 294 295 297 297 296 294
258 261 264 267 267 268 269 271 272 275 277 278 279 281 282 285 286 289 291 290 286 285 288 292 294 295 295 295 294 292 290 287 287 287 287 286 286 286 287 287 287 287 288 289 289 291 292 293 295 296 295 294 293 293
254 259 263 265 267 269 272 274 275 277 278 280 283 285 287 288 289 289 289 285 284 286 288 289 290 291 290 289 287 285 282 281 281 283 285 286 286 286 286 287 287 287 288 289 290 290 292 294 293 292 292 292 293 293
259 262 266 269 272 274 275 277 278 281 283 286 288 289 289 289 292 291 288 287 286 287 287 288 289 290 290 288 286 285 285 285 286 286 287 286 286 286 286 286 286 287 288 288 289 291 291 290 289 290 292 293 292 292
269 272 273 273 275 277 280 282 284 286 287 287 288 292 294 294 292 292 292 292 292 293 293 293 292 291 290 288 287 286 286 286 286 286 285 285 285 284 284 284 285 286 287 288 287 286 286 286 288 291 293 294 295 296
272 274 276 278 280 282 284 286 288 288 289 291 293 294 295 295 296 296 296 297 297 296 296 295 295 294 293 293 292 290 289 287 286 285 284 283 284 284 284 285 285 285 283 282 282 281 281 284 290 294 297 299 300 300
275 277 279 284 290 293 293 294 294 294 295 296 298 299 300 300 300 300 300 300 299 299 298 297 296 294 293 292 291 290 289 288 287 286 285 284 284 284 283 283 282 280 279 278 276 275 278 285 291 295 298 301 303 302
284 287 289 293 295 297 299 300 301 302 303 305 307 308 308 309 309 310 310 310 309 308 306 305 303 301 299 296 294 291 289 287 286 284 283 283 282 281 280 279 278 277 274 273 271 273 278 284 290 295 297 298 300 302
290 295 297 301 303 306 309 311 315 319 323 326 327 328 328 329 331 331 330 328 325 323 321 318 315 311 308 304 300 297 294 290 287 284 282 280 278 278 277 276 275 272 270 270 271 274 278 283 288 292 293 293 293 295
309 312 316 319 327 332 336 339 340 341 343 344 344 346 347 349 351 351 349 348 346 342 337 332 328 324 319 315 311 307 301 296 291 287 283 279 276 275 273 272 271 270 270 270 272 274 277 282 285 287 288 287 287 288